sat.trackr.live / text

‹ back to catalog

NORSAT 3

NORAD 48272 · 2021-034E

PAYLOAD ACTIVE UNKNOWN

§ Identity

Operator
Country
NOR
Launch date
2021-04-29
Launch site
FRGUI
Launch vehicle
Mass (kg)
RCS (m²)

External: N2YO · Heavens-Above · Gunter

§ Orbital elements

Epoch: 2026-05-25T04:58:34.188960Z

Period
95.68 min
Inclination
97.5327°
Eccentricity
0.0008172
Mean motion
15.05042999 rev/d
Perigee alt
545.7 km
Apogee alt
557.0 km
Semi-major
6,929.5 km
B*
2.5306e-4
RAAN
203.0315°
Arg perigee
34.8579°
Mean anomaly
325.3181°
Rev number
27,638

§ Raw data

NORSAT 31 48272U 21034E   26145.20734015  .00003537  00000+0  25306-3 0  99992 48272  97.5327 203.0315 0008172  34.8579 325.3181 15.05042999276389

JSON: /api/v1/satellites/48272 · /tle

For live sub-satellite position, see the globe view (requires WebGL).

§ Visibility from observer

Set your observer location to see the next 7 days of passes ≥ 10°. The values pass through the URL so the page stays shareable.

No JS? Fill the form by hand. The geolocation button needs JavaScript.

§ Radio — SatNOGS DB

ModeDescriptionDownlinkUplink
FM S-band telemetry 2.213 GHz

1 transmitter · refreshed weekly from db.satnogs.org